Regional Weather Roundup
Issued by NWS

Home | Current Version | Previous Version | Text Only | Print | Product List | Glossary On
Versions: 1 2 3 4 5 6 7 8 9 10 11 12 13 14 15 16 17 18 19 20 21 22 23 24 25 26 27 28 29 30 31 32 33 34 35 36 37 38 39 40 41 42 43 44 45 46 47 48 49 50
000
ASPQ40 PGUM 201112
RWRPQ
WEATHER ROUNDUP FOR THE MARIANAS AND MICRONESIA
NATIONAL WEATHER SERVICE TIYAN GU
900 PM CHST FRI OCT 20 2017

GUZ001>004-201200-
MARIANA ISLANDS-

CITY           SKY/WX    TMP DP  RH WIND       PRES   REMARKS
GUAM AIRPORT   PTCLDY    81  79  94 N5        29.84R
ANDERSEN AFB   PTCLDY    81  77  89 N7        29.85R
ROTA AIRPORT   NOT AVBL
TINIAN AP      NOT AVBL
SAIPAN AP      PTCLDY    81  79  94 N5        29.82S

$$

PMZ161-201200-
REPUBLIC OF PALAU-

CITY           SKY/WX    TMP DP  RH WIND       PRES   REMARKS
KOROR AP       CLOUDY    82  77  83 S7        29.80R HX  91
KOROR WSO      CLOUDY    84  79  84 S10       29.81R HX  96

$$

PMZ171>174-201200-
FEDERATED STATES OF MICRONESIA-

CITY           SKY/WX    TMP DP  RH WIND       PRES   REMARKS
YAP AIRPORT    CLOUDY    84  79  84 VRB5      29.80R HX  96
CHUUK AP       MOCLDY    82  81  94 VRB6      29.77R HX  95
POHNPEI AP     NOT AVBL
POHNPEI WSO    MOCLDY    77  77 100 S3        29.82S
KOSRAE AP      NOT AVBL

$$

PMZ181-201200-
REPUBLIC OF THE MARSHALL ISLANDS-

CITY           SKY/WX    TMP DP  RH WIND       PRES   REMARKS
KWAJALEIN AP   PTCLDY    84  77  79 SE3       29.79F HX  94
MAJURO AP      MOCLDY    82  77  83 S7        29.83S HX  91
MAJURO WSO     MOCLDY    82  75  78 SW6       29.81F

$$




USA.gov is the U.S. government's official web portal to all federal, state and local government web resources and services.